Enterprise, AL

7:57 AM CST on December 07, 2016 (GMT -0600)
Fort Rucker / Ozark

Weather History for KLOR - June, 2013

Change the Weather History Date:

Monday, June 10, 2013

  Actual Average (KOZR) Record (KOZR)
Temperature  
Mean Temperature 75 °F -  
Max Temperature 81 °F 84 °F 98 °F (2011)
Min Temperature 69 °F 66 °F 62 °F (2006)
Cooling Degree Days 10    
Growing Degree Days 25 (Base 50)    
Moisture  
Dew Point 72 °F    
Average Humidity 92    
Maximum Humidity 100    
Minimum Humidity 72    
Precipitation  
Precipitation 0.29 in - - ()
Sea Level Pressure  
Sea Level Pressure 30.04 in    
Wind  
Wind Speed 5 mph (SSW)    
Max Wind Speed 12 mph    
Max Gust Speed -    
Visibility 7 miles    
Events Rain , Thunderstorm    
Averages and records for this station are not official NWS values.
T = Trace of Precipitation, MM = Missing Value Source: NWS Daily Summary

Daily Weather History Graph

Daily Weather History Graph

Search for Another Location

Airport or City:

Trip Planner

Search our weather history database for the weather conditions in past years. The results will help you decide how hot, cold, wet, or windy it might be!

Date:

Astronomy

Jun. 10, 2013 Rise Set
Actual Time 5:38 AM CDT 7:47 PM CDT
Civil Twilight 5:10 AM CDT 8:15 PM CDT
Nautical Twilight 4:36 AM CDT 8:49 PM CDT
Astronomical Twilight 3:59 AM CDT 9:25 PM CDT
Moon 7:21 AM CDT (6/10) 9:20 PM CDT (6/10)
Length of Visible Light 15h 04m
Length of Day
14h 09m
Waxing Crescent, 4% of the Moon is Illuminated
Jun 10
Waxing Crescent
Jun 16
First Quarter
Jun 23
Full
Jun 29
Last Quarter
Jul 8
New

Hourly Weather History & Observations

Time (CDT) Temp. Heat Index Dew Point Humidity Pressure Visibility Wind Dir Wind Speed Gust Speed Precip Events Conditions
12:44 AM 69.8 °F - 69.8 °F 100% 30.05 in 10.0 mi South 4.6 mph - 0.00 in   Mostly Cloudy
12:53 AM 70.0 °F - 69.1 °F 97% 30.04 in 10.0 mi South 4.6 mph - 0.00 in   Mostly Cloudy
1:36 AM 69.8 °F - 69.8 °F 100% 30.03 in 10.0 mi South 5.8 mph - N/A   Mostly Cloudy
1:53 AM 70.0 °F - 69.1 °F 97% 30.02 in 10.0 mi SSW 4.6 mph - N/A   Mostly Cloudy
2:53 AM 70.0 °F - 69.1 °F 97% 30.02 in 10.0 mi SSW 4.6 mph - 0.01 in   Overcast
3:53 AM 71.1 °F - 69.1 °F 93% 30.01 in 8.0 mi South 4.6 mph - N/A   Overcast
4:53 AM 72.0 °F - 71.1 °F 97% 30.01 in 2.5 mi South 6.9 mph - N/A   Overcast
5:15 AM 71.6 °F - 71.6 °F 100% 30.01 in 4.0 mi South 3.5 mph - N/A   Overcast
5:28 AM 71.6 °F - 71.6 °F 100% 30.02 in 2.0 mi South 3.5 mph - N/A   Overcast
5:40 AM 71.6 °F - 71.6 °F 100% 30.03 in 1.0 mi South 4.6 mph - N/A   Mist
5:53 AM 72.0 °F - 71.1 °F 97% 30.03 in 0.8 mi South 4.6 mph - N/A   Mist
6:42 AM 73.4 °F - 71.6 °F 94% 30.04 in 1.2 mi South 4.6 mph - 0.03 in Rain Light Rain
6:53 AM 73.0 °F - 72.0 °F 96% 30.04 in 1.8 mi South 3.5 mph - 0.04 in Rain Light Rain
7:45 AM 73.4 °F - 71.6 °F 94% 30.04 in 2.0 mi South 3.5 mph - 0.09 in Rain Rain
7:53 AM 73.0 °F - 72.0 °F 96% 30.04 in 2.5 mi South 3.5 mph - 0.10 in Rain Rain
8:04 AM 73.4 °F - 71.6 °F 94% 30.04 in 3.0 mi South 3.5 mph - 0.02 in Rain Rain
8:13 AM 73.4 °F - 73.4 °F 100% 30.05 in 3.0 mi Calm Calm - 0.04 in Rain Rain
8:53 AM 73.9 °F - 73.0 °F 97% 30.04 in 7.0 mi South 6.9 mph - 0.08 in Rain Light Rain
9:49 AM 75.2 °F - 73.4 °F 94% 30.05 in 6.0 mi South 5.8 mph - 0.03 in Rain , Thunderstorm Light Thunderstorms and Rain
9:53 AM 75.9 °F - 73.9 °F 94% 30.04 in 6.0 mi South 6.9 mph - 0.03 in Rain , Thunderstorm Light Thunderstorms and Rain
10:11 AM 75.2 °F - 75.2 °F 100% 30.06 in 5.0 mi SSW 5.8 mph - 0.01 in Rain Light Rain
10:22 AM 77.0 °F - 75.2 °F 94% 30.06 in 8.0 mi SSW 8.1 mph - 0.01 in   Overcast
10:53 AM 77.0 °F - 75.0 °F 94% 30.06 in 9.0 mi SSW 9.2 mph - 0.01 in   Overcast
11:04 AM 77.0 °F - 75.2 °F 94% 30.07 in 9.0 mi SSW 9.2 mph - N/A Thunderstorm Thunderstorm
11:19 AM 78.8 °F - 75.2 °F 89% 30.07 in 8.0 mi SW 8.1 mph - N/A   Overcast
11:36 AM 78.8 °F - 75.2 °F 89% 30.08 in 9.0 mi WSW 9.2 mph - N/A   Overcast
11:51 AM 78.8 °F - 75.2 °F 89% 30.08 in 10.0 mi West 10.4 mph - N/A   Overcast
11:53 AM 78.1 °F - 73.9 °F 87% 30.07 in 10.0 mi West 11.5 mph - N/A   Overcast
12:07 PM 77.0 °F - 73.4 °F 89% 30.08 in 10.0 mi WSW 9.2 mph - 0.00 in Rain , Thunderstorm Light Thunderstorms and Rain
12:53 PM 75.0 °F - 71.1 °F 87% 30.08 in 10.0 mi SW 5.8 mph - 0.00 in Rain , Thunderstorm Light Thunderstorms and Rain
1:28 PM 73.4 °F - 71.6 °F 94% 30.07 in 9.0 mi WSW 9.2 mph - 0.01 in Rain Light Rain
1:53 PM 73.9 °F - 70.0 °F 87% 30.05 in 10.0 mi West 5.8 mph - 0.01 in   Mostly Cloudy
2:53 PM 73.9 °F - 70.0 °F 87% 30.04 in 10.0 mi SSW 4.6 mph - 0.01 in   Mostly Cloudy
3:53 PM 77.0 °F - 72.0 °F 84% 30.02 in 10.0 mi Variable 3.5 mph - N/A   Scattered Clouds
4:53 PM 81.0 °F 84.9 °F 71.1 °F 72% 30.01 in 10.0 mi WSW 6.9 mph - N/A   Clear
5:53 PM 80.1 °F 83.6 °F 71.1 °F 74% 29.99 in 10.0 mi SSW 6.9 mph - N/A   Clear
6:53 PM 79.0 °F - 72.0 °F 79% 29.99 in 10.0 mi SSW 6.9 mph - N/A   Clear
7:53 PM 77.0 °F - 71.1 °F 82% 30.01 in 10.0 mi WSW 5.8 mph - N/A   Clear
8:53 PM 73.9 °F - 72.0 °F 93% 30.02 in 10.0 mi South 3.5 mph - N/A   Clear
9:53 PM 73.9 °F - 71.1 °F 91% 30.04 in 10.0 mi SSW 4.6 mph - N/A   Clear
10:53 PM 73.0 °F - 70.0 °F 90% 30.04 in 10.0 mi SSW 3.5 mph - N/A   Clear
11:53 PM 71.1 °F - 70.0 °F 96% 30.05 in 8.0 mi Calm Calm - N/A   Clear